Simultaneous Nadir Overpasses (SNOs) Predictions

Prediction of SNOs between GOES-15 and METOP-A Satellite Orbit:

Table of predicted SNOs for the next 14.0 days since TLE Epoch: 10/10/2020
Index Date Time (GOES-15) GOES-15 Lat,Lon METOP-A Lat,Lon Distance(km) Time Diff (sec)
1 10/11/2020 05:08:14 -0.09,-128.43 -0.24,-128.99 63.73 80
2 10/13/2020 17:06:27 0.10,-128.38 0.17,-128.60 25.99 80
3 10/16/2020 05:02:09 -0.10,-128.39 -0.07,-128.26 14.11 80
4 10/18/2020 17:00:22 0.11,-128.32 -0.00,-127.88 50.57 80
5 10/20/2020 05:22:02 -0.12,-128.33 -1.04,-132.51 476.12 80
6 10/21/2020 04:58:43 -0.12,-128.31 0.05,-127.53 88.91 80
7 10/22/2020 17:20:15 0.14,-128.25 0.97,-132.13 441.13 80
8 10/23/2020 16:56:55 0.13,-128.23 -0.12,-127.15 123.71 80
